Weather History for Billund, Denmark

Change the Weather History Date:

Friday, December 28, 2012

  Actual Average Record
Temperature  
Mean Temperature 26 °F -  
Max Temperature 35 °F 37 °F 46 °F (2007)
Min Temperature 19 °F 29 °F 8 °F (1996)
Degree Days  
Heating Degree Days 39    
Moisture  
Dew Point 23 °F    
Average Humidity 83    
Maximum Humidity 93    
Minimum Humidity 55    
Precipitation  
Precipitation 0.00 in - - ()
Sea Level Pressure  
Sea Level Pressure 30.08 in    
Wind  
Wind Speed 6 mph ()    
Max Wind Speed 13 mph    
Max Gust Speed 25 mph    
Visibility 3.8 miles    
Events Rain , Snow    
Averages and records for this station are not official NWS values.
T = Trace of Precipitation, MM = Missing Value Source: Averaged Metar Reports

Daily Weather History Graph

Daily Weather History Graph

Search for Another Location

Airport:

Trip Planner

Search our weather history database for the weather conditions in past years. The results will help you decide how hot, cold, wet, or windy it might be!

Date:

Astronomy

Dec. 28, 2012 Rise Set
Actual Time 8:53 AM CET 3:57 PM CET
Civil Twilight 8:06 AM CET 4:43 PM CET
Nautical Twilight 7:17 AM CET 5:32 PM CET
Astronomical Twilight 6:32 AM CET 6:17 PM CET
Moon 4:29 PM CET (12/28) 8:26 AM CET (12/28)
Length of Visible Light 8h 37m
Length of Day
7h 03m
Full, 100% of the Moon is Illuminated
Dec 28
Full
Jan 5
Last Quarter
Jan 11
New
Jan 19
First Quarter
Jan 27
Full

Hourly Weather History & Observations

Time (CET) Temp. Windchill Dew Point Humidity Pressure Visibility Wind Dir Wind Speed Gust Speed Precip Events Conditions
12:20 AM 24.8 °F 16.9 °F 19.4 °F 80% 29.95 in - WNW 6.9 mph - N/A   Clear
12:50 AM 24.8 °F 16.9 °F 19.4 °F 80% 29.98 in - WNW 6.9 mph - N/A   Clear
1:20 AM 24.8 °F 16.9 °F 21.2 °F 86% 30.01 in - WNW 6.9 mph - N/A   Clear
1:50 AM 24.8 °F 19.1 °F 19.4 °F 80% 30.01 in - WNW 4.6 mph - N/A   Clear
2:20 AM 23.0 °F 15.8 °F 19.4 °F 86% 30.04 in - West 5.8 mph - N/A   Clear
2:50 AM 24.8 °F 16.9 °F 21.2 °F 86% 30.06 in - WNW 6.9 mph - N/A   Clear
3:20 AM 24.8 °F 19.1 °F 21.2 °F 86% 30.06 in - West 4.6 mph - N/A   Clear
3:50 AM 24.8 °F 20.5 °F 21.2 °F 86% 30.06 in - West 3.5 mph - N/A   Clear
4:20 AM 24.8 °F 19.1 °F 21.2 °F 86% 30.09 in - West 4.6 mph - N/A   Clear
4:50 AM 24.8 °F 17.9 °F 21.2 °F 86% 30.09 in - West 5.8 mph - N/A   Clear
5:20 AM 23.0 °F 17.0 °F 19.4 °F 86% 30.12 in - West 4.6 mph - N/A   Clear
5:50 AM 23.0 °F - 19.4 °F 86% 30.12 in - Calm Calm - N/A   Clear
6:20 AM 23.0 °F - 19.4 °F 86% 30.12 in - SW 1.2 mph - N/A   Clear
6:50 AM 21.2 °F - 17.6 °F 86% 30.12 in - Calm Calm - N/A   Clear
7:20 AM 21.2 °F - 19.4 °F 93% 30.15 in - East 2.3 mph - N/A   Clear
7:50 AM 21.2 °F - 19.4 °F 93% 30.15 in - Calm Calm - N/A   Clear
8:20 AM 21.2 °F - 19.4 °F 93% 30.15 in - Calm Calm - N/A   Clear
8:50 AM 19.4 °F - 17.6 °F 93% 30.15 in - ESE 1.2 mph - N/A   Clear
9:20 AM 21.2 °F - 19.4 °F 93% 30.15 in - ESE 1.2 mph - N/A   Clear
9:50 AM 24.8 °F - 23.0 °F 93% 30.18 in - South 2.3 mph - N/A   Clear
10:20 AM 28.4 °F 24.6 °F 26.6 °F 93% 30.18 in - SSW 3.5 mph - N/A   Clear
10:50 AM 30.2 °F 24.3 °F 26.6 °F 86% 30.18 in - SSW 5.8 mph - N/A   Clear
11:20 AM 32.0 °F 27.5 °F 26.6 °F 80% 30.18 in - SSW 4.6 mph - N/A   Clear
11:50 AM 32.0 °F 26.4 °F 26.6 °F 80% 30.18 in - South 5.8 mph - N/A   Clear
12:20 PM 32.0 °F 27.5 °F 26.6 °F 80% 30.18 in - South 4.6 mph - N/A   Clear
12:50 PM 32.0 °F 24.8 °F 26.6 °F 80% 30.18 in - South 8.1 mph - N/A   Clear
1:20 PM 32.0 °F 24.8 °F 26.6 °F 80% 30.18 in - South 8.1 mph - N/A   Clear
1:50 PM 33.8 °F 27.0 °F 24.8 °F 70% 30.18 in - South 8.1 mph - N/A   Clear
2:20 PM 32.0 °F 24.8 °F 26.6 °F 80% 30.15 in - South 8.1 mph - N/A   Clear
2:50 PM 32.0 °F 24.2 °F 26.6 °F 80% 30.15 in - South 9.2 mph - N/A   Clear
3:20 PM 32.0 °F 24.8 °F 26.6 °F 80% 30.12 in - SSE 8.1 mph - N/A   Clear
3:50 PM 32.0 °F 24.2 °F 24.8 °F 75% 30.12 in - SSE 9.2 mph - N/A   Clear
4:20 PM 32.0 °F 23.6 °F 23.0 °F 69% 30.09 in - SSE 10.4 mph - N/A   Clear
4:50 PM 32.0 °F 23.6 °F 19.4 °F 60% 30.09 in - SSE 10.4 mph - N/A   Clear
5:20 PM 32.0 °F 24.2 °F 17.6 °F 55% 30.09 in - SSE 9.2 mph - N/A   Clear
5:50 PM 32.0 °F 24.2 °F 17.6 °F 55% 30.06 in - SSE 9.2 mph - N/A   Clear
6:20 PM 32.0 °F 22.5 °F 17.6 °F 55% 30.06 in 6.2 mi SSE 12.7 mph - N/A Snow Light Snow
6:50 PM 32.0 °F 22.5 °F 19.4 °F 60% 30.04 in 6.2 mi SSE 12.7 mph - N/A Snow Light Snow
7:20 PM 30.2 °F 20.2 °F 23.0 °F 75% 30.04 in 6.2 mi SSE 12.7 mph - N/A Rain , Snow Light Snow
7:50 PM 30.2 °F 20.8 °F 26.6 °F 86% 30.01 in 5.0 mi SSE 11.5 mph - N/A Rain , Snow Light Snow
8:20 PM 32.0 °F 23.0 °F 28.4 °F 87% 29.98 in 5.0 mi SSE 11.5 mph 23.0 mph N/A Rain , Snow Light Snow
8:50 PM 32.0 °F 23.0 °F 30.2 °F 93% 29.98 in 3.7 mi SSE 11.5 mph - N/A Rain , Snow Light Rain
9:20 PM 32.0 °F 22.5 °F 30.2 °F 93% 29.95 in 2.2 mi SSE 12.7 mph - N/A Rain , Snow Light Rain
9:50 PM 32.0 °F 23.0 °F 30.2 °F 93% 29.95 in 2.5 mi SSE 11.5 mph - N/A Rain Light Rain
10:20 PM 33.8 °F 24.8 °F 32.0 °F 93% 29.92 in 2.2 mi SSE 12.7 mph - N/A Rain Light Rain
10:50 PM 33.8 °F 24.8 °F 32.0 °F 93% 29.92 in 2.2 mi South 12.7 mph 25.3 mph N/A Rain Light Rain
11:20 PM 33.8 °F 24.8 °F 32.0 °F 93% 29.92 in 2.5 mi SSE 12.7 mph - N/A Rain Light Rain
11:50 PM 35.6 °F 27.5 °F 33.8 °F 93% 29.89 in 2.2 mi South 11.5 mph - N/A   Light Drizzle